星链-3119 (STARLINK-3119 )

导读

STARLINK-3119是美国SpaceX公司星链(Starlink)星座的组网卫星,于2021年9月14日发射升空。作为低轨宽带通信卫星,它隶属于SpaceX打造的全球卫星互联网项目,采用平板设计与霍尔推进技术,具备自主避撞能力,旨在为全球尤其是偏远区域提供高速稳定的宽带互联网接入服务,是星链大规模低轨星座部署中的组成单元,服役寿命约5至7年,退役后会主动离轨再入大气层焚毁。

Basic Information
目录编号:
49145
目录名称:
STARLINK-3119
国际标识:
2021-082R
轨道中心:
EARTH
卫星名称:
星链-3119
卫星全名:
星链-3119 (STARLINK-3119 )
卫星状态:
在轨 (已飞行1817 天)
发射日期:
2021-09-14 UTC
国别 :
美国 (US)
星等 :
--
Orbit Information
数据来源 国际轨道数据
星历时间: 2026-09-05T02:25:48+0800
11小时前
查看轨道信息
半长轴: 6950.162km
偏心率: 0.0003025
轨道倾角: 70.000°
近地点辐角 271.580°
升交点赤经 162.920°
平近点角 88.501°
近地点: 569.922km
远地点: 574.128km
周期: 96.106分钟
每日圈数: 14.983403
Detailed Information
固有亮度:
5
最大亮度:
2.5
卫星平台:
Starlink v1.5
覆盖范围:
全球
运营商:
太空探索技术公司
运营商所在国:
美国
制造商(研发单位):
太空探索技术公司
制造商所在国:
美国
使用方式:
暂无
Satellite Introduction
星链(Starlink)计划是由太空探索技术公司(SpaceX)提出的一个巨型低轨卫星互联网星座项目,计划在2019年至2024年间在太空搭建由约1.2万颗卫星组成的“星链”网络,其中1584颗将部署在地球上空550千米处的近地轨道,并从2020年开始工作。该卫星仍在工作。
2D Orbit Map
3D Orbit Map
Orbit Altitude Analysis Chart
Orbit Inclination Analysis Chart
Orbit Comprehensive Analysis Chart
View Comprehensive Chart
Conjunction Data List
Event ID Objects TCA Miss Dist (km) Collision Risk Probability Collision Risk Index (CRI) Action
CDM_260907-030704-914506-054621
2026-09-07T
03:07:16+0000
1.032 km
极远距离
2.459984E-5 中风险 0.63
CDM_260906-212904-914506-054921
2026-09-06T
21:29:43+0000
2.418 km
极远距离
1.880871E-6 低风险 0.4